User: anonymous   Login
Location: Fort Wayne
(41.1310°N, 85.1290°W)
Time: 19:45:43
(UTC-04:00)
Language:

Cosmos 1980 - Orbit

View from above orbital plane
View from above orbital plane
View from above satellite
View from above satellite

Ground track
Ground track

The orbit data is extracted from the following two-line orbital elements,

1 19649U 88102A   15085.10756017 -.00000182  00000-0 -70198-4 0  9996
2 19649 071.0016 334.3817 0003456 125.7234 234.4210 14.14591931359446
Epoch (UTC): 26 March 2015 02:34:53
Eccentricity: 0.0003456
inclination: 71.0016°
perigee height: 841 km
apogee height: 846 km
right ascension of ascending node: 334.3817°
argument of perigee: 125.7234°
revolutions per day: 14.14591931
mean anomaly at epoch: 234.4210°
orbit number at epoch: 35944

The dashed part of the orbit path shows where the satellite is in the earth's shadow,  

DLR